When you browse on this site, cookies collect data to enhance your experience and personalize the content and advertising you see.
Visit our Privacy Policy to learn more. By continuing to use the site, you agree to this use of cookies and data.
  • In Hungary
  • List of Countries
  • For 7 days
  • Water Temperature
  • Satellite Maps
  • Weather Map
  • News
  • Weather Widgets
  • user-avatar
    Login

    Hourly Weather Channagiri

    Today, 24 January, Thursday

    Time Temperature Precipitation Wind Pressure Humidity
    00:00 +21°C° 0 mm 0 mps 704 mmHg 44%
    01:00 +21°C° 0 mm 0 mps 704 mmHg 47%
    02:00 +20°C° 0 mm 0 mps 704 mmHg 50%
    03:00 +20°C° 0 mm 0 mps 704 mmHg 52%
    04:00 +19°C° 0 mm 0 mps 704 mmHg 53%
    05:00 +19°C° 0 mm 0 mps 704 mmHg 58%
    06:00 +22°C° 0 mm 1 mps 704 mmHg 55%
    07:00 +23°C° 0 mm 2 mps 705 mmHg 52%
    08:00 +24°C° 0 mm 2 mps 705 mmHg 49%
    09:00 +26°C° 0 mm 2 mps 705 mmHg 44%
    10:00 +28°C° 0 mm 2 mps 705 mmHg 39%
    11:00 +30°C° 0 mm 2 mps 706 mmHg 34%
    12:00 +31°C° 0 mm 2 mps 705 mmHg 31%
    13:00 +32°C° 0 mm 2 mps 704 mmHg 28%
    14:00 +34°C° 0 mm 2 mps 704 mmHg 26%
    15:00 +34°C° 0 mm 2 mps 703 mmHg 26%
    16:00 +34°C° 0 mm 2 mps 703 mmHg 26%
    17:00 +32°C° 0 mm 2 mps 703 mmHg 26%
    18:00 +30°C° 0 mm 3 mps 703 mmHg 35%
    19:00 +28°C° 0 mm 3 mps 703 mmHg 44%
    20:00 +26°C° 0 mm 4 mps 703 mmHg 53%
    21:00 +25°C° 0 mm 3 mps 703 mmHg 60%
    22:00 +24°C° 0 mm 2 mps 703 mmHg 68%
    23:00 +23°C° 0 mm 1 mps 703 mmHg 76%

    Tomorrow, 25 January, Friday

    Time Temperature Precipitation Wind Pressure Humidity
    00:00 +23°C° 0 mm 1 mps 703 mmHg 76%
    01:00 +22°C° 0 mm 1 mps 703 mmHg 77%
    02:00 +22°C° 0 mm 1 mps 703 mmHg 77%
    03:00 +22°C° 0 mm 1 mps 703 mmHg 76%
    04:00 +22°C° 0 mm 1 mps 703 mmHg 75%
    05:00 +22°C° 0 mm 1 mps 703 mmHg 73%
    06:00 +23°C° 0 mm 1 mps 704 mmHg 71%
    07:00 +23°C° 0 mm 1 mps 704 mmHg 68%
    08:00 +24°C° 0 mm 1 mps 705 mmHg 65%
    09:00 +26°C° 0 mm 1 mps 705 mmHg 56%
    10:00 +28°C° 0 mm 1 mps 705 mmHg 48%
    11:00 +30°C° 0 mm 2 mps 705 mmHg 39%
    12:00 +30°C° 0 mm 2 mps 705 mmHg 38%
    13:00 +31°C° 0 mm 2 mps 704 mmHg 36%
    14:00 +31°C° 0 mm 2 mps 703 mmHg 35%
    15:00 +31°C° 0 mm 2 mps 703 mmHg 35%
    16:00 +31°C° 0 mm 2 mps 703 mmHg 34%
    17:00 +31°C° 0 mm 2 mps 703 mmHg 34%
    18:00 +29°C° 0 mm 2 mps 703 mmHg 40%
    19:00 +28°C° 0 mm 3 mps 703 mmHg 46%
    20:00 +26°C° 0 mm 3 mps 703 mmHg 52%
    21:00 +25°C° 0 mm 3 mps 703 mmHg 59%
    22:00 +24°C° 0 mm 3 mps 703 mmHg 66%
    23:00 +23°C° 0 mm 2 mps 703 mmHg 74%

    Day after tomorrow, 26 January, Saturday

    Time Temperature Precipitation Wind Pressure Humidity
    00:00 +21°C° 0 mm 2 mps 703 mmHg 76%
    01:00 +21°C° 0 mm 2 mps 703 mmHg 78%
    02:00 +21°C° 0 mm 1 mps 703 mmHg 80%
    03:00 +21°C° 0 mm 1 mps 703 mmHg 81%
    04:00 +21°C° 0 mm 1 mps 703 mmHg 81%
    05:00 +18°C° 0 mm 0 mps 703 mmHg 82%
    06:00 +19°C° 0 mm 0 mps 703 mmHg 78%
    07:00 +20°C° 0 mm 0 mps 704 mmHg 74%
    08:00 +21°C° 0 mm 0 mps 705 mmHg 69%
    09:00 +23°C° 0 mm 0 mps 705 mmHg 62%
    10:00 +25°C° 0 mm 0 mps 705 mmHg 54%
    11:00 +28°C° 0 mm 0 mps 706 mmHg 46%
    12:00 +28°C° 0 mm 0 mps 705 mmHg 45%
    13:00 +30°C° 0 mm 1 mps 704 mmHg 43%
    14:00 +30°C° 0 mm 1 mps 703 mmHg 42%
    15:00 +30°C° 0 mm 1 mps 703 mmHg 41%
    16:00 +30°C° 0 mm 1 mps 703 mmHg 41%
    17:00 +30°C° 0 mm 1 mps 703 mmHg 41%
    18:00 +29°C° 0 mm 1 mps 703 mmHg 43%
    19:00 +28°C° 0 mm 1 mps 704 mmHg 45%
    20:00 +27°C° 0 mm 2 mps 704 mmHg 47%
    21:00 +26°C° 0 mm 2 mps 704 mmHg 53%
    22:00 +25°C° 0 mm 2 mps 704 mmHg 58%
    23:00 +24°C° 0 mm 2 mps 704 mmHg 64%

    27 January, Sunday

    Time Temperature Precipitation Wind Pressure Humidity
    00:00 +23°C° 0 mm 2 mps 704 mmHg 67%
    01:00 +23°C° 0 mm 2 mps 703 mmHg 70%
    02:00 +22°C° 0 mm 1 mps 703 mmHg 73%
    03:00 +22°C° 0 mm 1 mps 703 mmHg 73%
    04:00 +20°C° 0 mm 0 mps 703 mmHg 73%
    05:00 +20°C° 0 mm 0 mps 703 mmHg 72%
    06:00 +21°C° 0 mm 0 mps 704 mmHg 69%
    07:00 +21°C° 0 mm 0 mps 704 mmHg 66%
    08:00 +24°C° 0 mm 1 mps 705 mmHg 63%
    09:00 +26°C° 0 mm 1 mps 705 mmHg 57%
    10:00 +27°C° 0 mm 1 mps 706 mmHg 50%
    11:00 +29°C° 0 mm 1 mps 706 mmHg 44%
    12:00 +30°C° 0 mm 1 mps 705 mmHg 42%
    13:00 +31°C° 0 mm 1 mps 704 mmHg 39%
    14:00 +31°C° 0 mm 1 mps 704 mmHg 37%
    15:00 +31°C° 0 mm 1 mps 703 mmHg 39%
    16:00 +30°C° 0 mm 1 mps 703 mmHg 40%
    17:00 +30°C° 0 mm 1 mps 703 mmHg 42%
    18:00 +29°C° 0 mm 1 mps 704 mmHg 45%
    19:00 +28°C° 0 mm 2 mps 704 mmHg 49%
    20:00 +27°C° 0 mm 2 mps 705 mmHg 52%
    21:00 +26°C° 0 mm 2 mps 705 mmHg 55%
    22:00 +25°C° 0 mm 2 mps 705 mmHg 58%
    23:00 +25°C° 0 mm 1 mps 705 mmHg 61%

    28 January, Monday

    Time Temperature Precipitation Wind Pressure Humidity
    00:00 +24°C° 0.1 mm 1 mps 704 mmHg 64%
    01:00 +24°C° 0.1 mm 1 mps 704 mmHg 66%
    02:00 +23°C° 0.1 mm 1 mps 703 mmHg 69%
    03:00 +23°C° 0 mm 1 mps 703 mmHg 72%
    04:00 +22°C° 0 mm 1 mps 704 mmHg 74%
    05:00 +22°C° 0 mm 1 mps 704 mmHg 77%
    06:00 +21°C° 0.1 mm 2 mps 704 mmHg 75%
    07:00 +22°C° 0.1 mm 3 mps 705 mmHg 74%
    08:00 +23°C° 0.1 mm 4 mps 706 mmHg 73%
    09:00 +25°C° 0.2 mm 4 mps 706 mmHg 66%
    10:00 +27°C° 0.2 mm 4 mps 706 mmHg 59%
    11:00 +28°C° 0.2 mm 5 mps 707 mmHg 53%
    12:00 +29°C° 0.2 mm 5 mps 706 mmHg 50%
    13:00 +29°C° 0.2 mm 4 mps 705 mmHg 47%
    14:00 +30°C° 0.2 mm 4 mps 704 mmHg 44%
    15:00 +29°C° 0 mm 4 mps 704 mmHg 45%
    16:00 +29°C° 0 mm 4 mps 704 mmHg 46%
    17:00 +28°C° 0 mm 4 mps 704 mmHg 48%
    18:00 +27°C° 0.1 mm 5 mps 705 mmHg 53%
    19:00 +26°C° 0.1 mm 5 mps 705 mmHg 58%
    20:00 +24°C° 0.1 mm 6 mps 706 mmHg 64%
    21:00 +23°C° 0.1 mm 6 mps 706 mmHg 66%
    22:00 +22°C° 0.1 mm 5 mps 706 mmHg 69%
    23:00 +21°C° 0.1 mm 5 mps 706 mmHg 72%

    29 January, Tuesday

    Time Temperature Precipitation Wind Pressure Humidity
    00:00 +21°C° 0.1 mm 5 mps 705 mmHg 72%
    01:00 +21°C° 0.1 mm 4 mps 705 mmHg 72%
    02:00 +21°C° 0.1 mm 4 mps 704 mmHg 72%
    03:00 +21°C° 0 mm 4 mps 704 mmHg 73%
    04:00 +20°C° 0 mm 4 mps 704 mmHg 74%
    05:00 +20°C° 0 mm 4 mps 704 mmHg 75%
    06:00 +21°C° 0 mm 5 mps 705 mmHg 72%
    07:00 +21°C° 0 mm 5 mps 706 mmHg 69%
    08:00 +22°C° 0 mm 5 mps 706 mmHg 66%
    09:00 +23°C° 0 mm 6 mps 706 mmHg 59%
    10:00 +26°C° 0 mm 6 mps 706 mmHg 52%
    11:00 +28°C° 0 mm 6 mps 706 mmHg 45%
    12:00 +29°C° 0 mm 5 mps 706 mmHg 42%
    13:00 +30°C° 0 mm 5 mps 705 mmHg 39%
    14:00 +32°C° 0 mm 4 mps 704 mmHg 37%
    15:00 +30°C° 0 mm 4 mps 704 mmHg 37%
    16:00 +30°C° 0 mm 4 mps 704 mmHg 38%
    17:00 +29°C° 0 mm 4 mps 704 mmHg 39%
    18:00 +28°C° 0 mm 4 mps 704 mmHg 41%
    19:00 +27°C° 0 mm 4 mps 705 mmHg 43%
    20:00 +27°C° 0 mm 4 mps 705 mmHg 44%
    21:00 +26°C° 0 mm 4 mps 705 mmHg 46%
    22:00 +25°C° 0 mm 4 mps 705 mmHg 48%
    23:00 +23°C° 0 mm 4 mps 705 mmHg 49%
    Show more